Regional Weather Roundup
Issued by NWS

Home | Current Version | Previous Version | Graphics & Text | Print | Product List | Glossary On
Versions: 1 2 3 4 5 6 7 8 9 10 11 12 13 14 15 16 17 18 19 20 21 22 23 24 25 26 27 28 29 30 31 32 33 34 35 36 37 38 39 40 41 42 43 44 45 46 47 48 49 50
000
ASUS43 KBIS 060010
RWRND

NORTH DAKOTA REGIONAL WEATHER ROUNDUP
NATIONAL WEATHER SERVICE BISMARCK ND
600 PM CST THU MAR 05 2015

NOTE: "FAIR" INDICATES FEW OR NO CLOUDS BELOW 12,000 FEET WITH NO
SIGNIFICANT WEATHER AND/OR OBSTRUCTIONS TO VISIBILITY.


NDZ001>003-009>011-017-060100-
NORTHWEST NORTH DAKOTA

CITY           SKY/WX    TMP DP  RH WIND       PRES   REMARKS
WILLISTON      MOCLDY    40  20  44 W10       30.02S
6HR MIN TEMP:  26; 6HR MAX TEMP:  42;

MINOT          CLEAR     28  13  53 SW14G22   30.00S WCI  17
MINOT AFB      CLEAR     26  18  71 SW7       29.99S WCI  19
$$

NDZ018>021-031>035-040>046-060100-
SOUTHWEST NORTH DAKOTA

CITY           SKY/WX    TMP DP  RH WIND       PRES   REMARKS
BISMARCK       CLEAR     38  14  37 W14       30.06R
6HR MIN TEMP:  26; 6HR MAX TEMP:  41;

DICKINSON      PTCLDY    40  12  32 W15       30.02R
GARRISON         N/A     28  16  60 W7        30.03S
6HR MIN TEMP:  17; 6HR MAX TEMP:  31;

HETTINGER ARPT CLEAR     41  11  29 NW15G25   30.06R
$$

NDZ004>008-012>016-024-026-027-054-060100-
NORTHEAST NORTH DAKOTA

CITY           SKY/WX    TMP DP  RH WIND       PRES   REMARKS
GRAND FORKS    PTCLDY    22  11  62 S15       30.11F WCI   9
GRND FRKS AFB  CLEAR     24  10  54 SW14      30.08F WCI  12
DEVILS LAKE    CLEAR     21  12  68 SW12      30.02F WCI   9
$$

NDZ022-023-025-028>030-036>039-047>053-060100-
SOUTHEAST NORTH DAKOTA

CITY           SKY/WX    TMP DP  RH WIND       PRES   REMARKS
FARGO          CLEAR     23   7  50 S20       30.19F WCI   8
6HR MIN TEMP:  15; 6HR MAX TEMP:  25;

JAMESTOWN      CLEAR     26  12  55 S13       30.07F WCI  15
$$




USA.gov is the U.S. government's official web portal to all federal, state and local government web resources and services.